Time,TemperatureF,DewpointF,PressureIn,WindDirection,WindDirectionDegrees,WindSpeedMPH,WindSpeedGustMPH,Humidity,HourlyPrecipIn,Conditions,Clouds,dailyrainin,SoftwareType,DateUTC
2013-07-22 00:32:00,61.0,60.0,-100.00,SSW,195,0.0,0.0,97,0.00,,,-99.99,,2013-07-22 05:32:00,
2013-07-22 00:43:00,61.0,60.0,-100.00,SSW,195,0.0,0.0,97,0.00,,,-99.99,,2013-07-22 05:43:00,
2013-07-22 00:52:00,61.0,60.0,-100.00,SSW,195,0.0,0.0,97,0.00,,,-99.99,,2013-07-22 05:52:00,
2013-07-22 01:01:00,61.0,60.0,-100.00,SSW,195,0.0,0.0,97,0.00,,,-99.99,,2013-07-22 06:01:00,
2013-07-22 01:33:00,61.0,60.0,-100.00,NE,50,0.0,0.0,97,0.00,,,-99.99,,2013-07-22 06:33:00,
2013-07-22 01:43:00,61.0,60.0,-100.00,NE,50,0.0,0.0,97,0.00,,,-99.99,,2013-07-22 06:43:00,
2013-07-22 01:52:00,61.0,60.0,-100.00,NE,50,0.0,0.0,97,0.00,,,-99.99,,2013-07-22 06:52:00,
2013-07-22 02:01:00,61.0,60.0,-100.00,NE,50,0.0,0.0,97,0.00,,,-99.99,,2013-07-22 07:01:00,
2013-07-22 02:11:00,62.0,61.0,-100.00,SSE,160,0.0,0.0,97,0.00,,,-99.99,,2013-07-22 07:11:00,
2013-07-22 02:33:00,62.0,61.0,-100.00,SSE,160,0.0,0.0,97,0.00,,,-99.99,,2013-07-22 07:33:00,
2013-07-22 02:43:00,62.0,61.0,-100.00,SSE,160,0.0,0.0,97,0.00,,,-99.99,,2013-07-22 07:43:00,
2013-07-22 02:53:00,62.0,61.0,-100.00,SSE,160,0.0,0.0,97,0.00,,,-99.99,,2013-07-22 07:53:00,
2013-07-22 03:02:00,62.0,61.0,-100.00,SSE,160,0.0,0.0,97,0.00,,,-99.99,,2013-07-22 08:02:00,
2013-07-22 03:10:00,62.0,61.0,-100.00,WNW,300,0.0,0.0,97,0.00,,,-99.99,,2013-07-22 08:10:00,
2013-07-22 03:32:00,62.0,61.0,-100.00,WNW,300,0.0,0.0,97,0.00,,,-99.99,,2013-07-22 08:32:00,
2013-07-22 03:43:00,62.0,61.0,-100.00,WNW,300,0.0,0.0,97,0.00,,,-99.99,,2013-07-22 08:43:00,
2013-07-22 03:52:00,62.0,61.0,-100.00,WNW,300,0.0,0.0,97,0.00,,,-99.99,,2013-07-22 08:52:00,
2013-07-22 04:02:00,62.0,61.0,-100.00,WNW,300,0.0,0.0,97,0.00,,,-99.99,,2013-07-22 09:02:00,
2013-07-22 04:10:00,61.0,60.0,-100.00,ESE,110,0.0,0.0,97,0.00,,,-99.99,,2013-07-22 09:10:00,
2013-07-22 04:33:00,61.0,60.0,-100.00,ESE,110,0.0,0.0,97,0.00,,,-99.99,,2013-07-22 09:33:00,
2013-07-22 04:42:00,61.0,60.0,-100.00,ESE,110,0.0,0.0,97,0.00,,,-99.99,,2013-07-22 09:42:00,
2013-07-22 04:52:00,61.0,60.0,-100.00,ESE,110,0.0,0.0,97,0.00,,,-99.99,,2013-07-22 09:52:00,
2013-07-22 05:02:00,61.0,60.0,-100.00,ESE,110,0.0,0.0,97,0.00,,,-99.99,,2013-07-22 10:02:00,
2013-07-22 05:32:00,60.0,59.0,-100.00,SE,125,0.0,0.0,97,0.00,,,-99.99,,2013-07-22 10:32:00,
2013-07-22 05:43:00,60.0,59.0,-100.00,SE,125,0.0,0.0,97,0.00,,,-99.99,,2013-07-22 10:43:00,
2013-07-22 05:53:00,60.0,59.0,-100.00,SE,125,0.0,0.0,97,0.00,,,-99.99,,2013-07-22 10:53:00,
2013-07-22 06:02:00,60.0,59.0,-100.00,SE,125,0.0,0.0,97,0.00,,,-99.99,,2013-07-22 11:02:00,
2013-07-22 06:32:00,63.0,62.0,-100.00,SW,215,0.0,0.0,97,0.00,,,-99.99,,2013-07-22 11:32:00,
2013-07-22 06:43:00,63.0,62.0,-100.00,SW,215,0.0,0.0,97,0.00,,,-99.99,,2013-07-22 11:43:00,
2013-07-22 06:52:00,63.0,62.0,-100.00,SW,215,0.0,0.0,97,0.00,,,-99.99,,2013-07-22 11:52:00,
2013-07-22 07:02:00,63.0,62.0,-100.00,SW,215,0.0,0.0,97,0.00,,,-99.99,,2013-07-22 12:02:00,
2013-07-22 07:10:00,65.0,64.0,-100.00,WNW,300,0.0,0.0,97,0.00,,,-99.99,,2013-07-22 12:10:00,
2013-07-22 07:33:00,65.0,64.0,-100.00,WNW,300,0.0,0.0,97,0.00,,,-99.99,,2013-07-22 12:33:00,
2013-07-22 07:43:00,65.0,64.0,-100.00,WNW,300,0.0,0.0,97,0.00,,,-99.99,,2013-07-22 12:43:00,
2013-07-22 07:53:00,65.0,64.0,-100.00,WNW,300,0.0,0.0,97,0.00,,,-99.99,,2013-07-22 12:53:00,
2013-07-22 08:01:00,65.0,64.0,-100.00,WNW,300,0.0,0.0,97,0.00,,,-99.99,,2013-07-22 13:01:00,
2013-07-22 09:10:00,73.0,65.0,-100.00,SW,225,0.0,0.0,76,0.00,,,-99.99,,2013-07-22 14:10:00,
2013-07-22 10:33:00,77.0,67.0,-100.00,WSW,255,0.0,0.0,70,0.00,,,-99.99,,2013-07-22 15:33:00,
2013-07-22 10:43:00,77.0,67.0,-100.00,WSW,255,0.0,0.0,70,0.00,,,-99.99,,2013-07-22 15:43:00,
2013-07-22 10:52:00,77.0,67.0,-100.00,WSW,255,0.0,0.0,70,0.00,,,-99.99,,2013-07-22 15:52:00,
2013-07-22 11:01:00,77.0,67.0,-100.00,WSW,255,0.0,0.0,70,0.00,,,-99.99,,2013-07-22 16:01:00,
2013-07-22 11:10:00,81.0,67.0,-100.00,West,280,0.0,0.0,64,0.00,,,-99.99,,2013-07-22 16:10:00,
2013-07-22 11:32:00,81.0,67.0,-100.00,West,280,0.0,0.0,64,0.00,,,-99.99,,2013-07-22 16:32:00,
2013-07-22 11:43:00,81.0,67.0,-100.00,West,280,0.0,0.0,64,0.00,,,-99.99,,2013-07-22 16:43:00,
2013-07-22 11:52:00,81.0,67.0,-100.00,West,280,0.0,0.0,64,0.00,,,-99.99,,2013-07-22 16:52:00,
2013-07-22 12:01:00,81.0,67.0,-100.00,West,280,0.0,0.0,64,0.00,,,-99.99,,2013-07-22 17:01:00,
2013-07-22 12:33:00,82.0,68.0,-100.00,SW,225,0.0,0.0,62,0.00,,,-99.99,,2013-07-22 17:33:00,
2013-07-22 12:43:00,82.0,68.0,-100.00,SW,225,0.0,0.0,62,0.00,,,-99.99,,2013-07-22 17:43:00,
2013-07-22 12:52:00,82.0,68.0,-100.00,SW,225,0.0,0.0,62,0.00,,,-99.99,,2013-07-22 17:52:00,
2013-07-22 13:05:00,82.0,68.0,-100.00,SW,225,0.0,0.0,62,0.00,,,-99.99,,2013-07-22 18:05:00,
2013-07-22 13:11:00,83.0,69.0,-100.00,SW,220,0.0,0.0,61,0.00,,,-99.99,,2013-07-22 18:11:00,
2013-07-22 13:40:00,83.0,69.0,-100.00,SW,220,0.0,0.0,61,0.00,,,-99.99,,2013-07-22 18:40:00,
2013-07-22 13:55:00,83.0,69.0,-100.00,SW,220,0.0,0.0,61,0.00,,,-99.99,,2013-07-22 18:55:00,
2013-07-22 14:05:00,83.0,69.0,-100.00,SW,220,0.0,0.0,61,0.00,,,-99.99,,2013-07-22 19:05:00,
2013-07-22 14:37:00,84.0,70.0,-100.00,WSW,245,0.0,0.0,62,0.00,,,-99.99,,2013-07-22 19:37:00,
2013-07-22 14:47:00,84.0,70.0,-100.00,WSW,245,0.0,0.0,62,0.00,,,-99.99,,2013-07-22 19:47:00,
2013-07-22 14:55:00,84.0,70.0,-100.00,WSW,245,0.0,0.0,62,0.00,,,-99.99,,2013-07-22 19:55:00,
2013-07-22 15:04:00,84.0,70.0,-100.00,WSW,245,0.0,0.0,62,0.00,,,-99.99,,2013-07-22 20:04:00,
2013-07-22 15:10:00,85.0,71.0,-100.00,WSW,250,0.0,0.0,62,0.00,,,-99.99,,2013-07-22 20:10:00,
2013-07-22 15:32:00,85.0,71.0,-100.00,WSW,250,0.0,0.0,62,0.00,,,-99.99,,2013-07-22 20:32:00,
2013-07-22 15:43:00,85.0,71.0,-100.00,WSW,250,0.0,0.0,62,0.00,,,-99.99,,2013-07-22 20:43:00,
2013-07-22 15:52:00,85.0,71.0,-100.00,WSW,250,0.0,0.0,62,0.00,,,-99.99,,2013-07-22 20:52:00,
2013-07-22 16:01:00,85.0,71.0,-100.00,WSW,250,0.0,0.0,62,0.00,,,-99.99,,2013-07-22 21:01:00,
2013-07-22 16:33:00,85.0,71.0,-100.00,West,260,0.0,0.0,62,0.00,,,-99.99,,2013-07-22 21:33:00,
2013-07-22 16:43:00,85.0,71.0,-100.00,West,260,0.0,0.0,62,0.00,,,-99.99,,2013-07-22 21:43:00,
2013-07-22 16:53:00,85.0,71.0,-100.00,West,260,0.0,0.0,62,0.00,,,-99.99,,2013-07-22 21:53:00,
2013-07-22 17:01:00,85.0,71.0,-100.00,West,260,0.0,0.0,62,0.00,,,-99.99,,2013-07-22 22:01:00,
2013-07-22 17:32:00,81.0,71.0,-100.00,WSW,255,0.0,0.0,73,0.00,,,-99.99,,2013-07-22 22:32:00,
2013-07-22 17:43:00,81.0,71.0,-100.00,WSW,255,0.0,0.0,73,0.00,,,-99.99,,2013-07-22 22:43:00,
2013-07-22 17:52:00,81.0,71.0,-100.00,WSW,255,0.0,0.0,73,0.00,,,-99.99,,2013-07-22 22:52:00,
2013-07-22 18:01:00,81.0,71.0,-100.00,WSW,255,0.0,0.0,73,0.00,,,-99.99,,2013-07-22 23:01:00,
2013-07-22 18:32:00,77.0,74.0,-100.00,WNW,285,0.0,0.0,91,0.00,,,-99.99,,2013-07-22 23:32:00,
2013-07-22 18:43:00,77.0,74.0,-100.00,WNW,285,0.0,0.0,91,0.00,,,-99.99,,2013-07-22 23:43:00,
2013-07-22 18:52:00,77.0,74.0,-100.00,WNW,285,0.0,0.0,91,0.00,,,-99.99,,2013-07-22 23:52:00,
2013-07-22 19:01:00,77.0,74.0,-100.00,WNW,285,0.0,0.0,91,0.00,,,-99.99,,2013-07-23 00:01:00,
2013-07-22 20:10:00,75.0,71.0,-100.00,WSW,240,0.0,0.0,90,0.00,,,-99.99,,2013-07-23 01:10:00,
2013-07-22 20:32:00,75.0,71.0,-100.00,WSW,240,0.0,0.0,90,0.00,,,-99.99,,2013-07-23 01:32:00,
2013-07-22 20:43:00,75.0,71.0,-100.00,WSW,240,0.0,0.0,90,0.00,,,-99.99,,2013-07-23 01:43:00,
2013-07-22 20:53:00,75.0,71.0,-100.00,WSW,240,0.0,0.0,90,0.00,,,-99.99,,2013-07-23 01:53:00,
2013-07-22 21:02:00,75.0,71.0,-100.00,WSW,240,0.0,0.0,90,0.00,,,-99.99,,2013-07-23 02:02:00,
2013-07-22 22:33:00,71.0,66.0,-100.00,West,275,0.0,0.0,85,0.00,,,-99.99,,2013-07-23 03:33:00,
2013-07-22 22:43:00,71.0,66.0,-100.00,West,275,0.0,0.0,85,0.00,,,-99.99,,2013-07-23 03:43:00,
2013-07-22 22:52:00,71.0,66.0,-100.00,West,275,0.0,0.0,85,0.00,,,-99.99,,2013-07-23 03:52:00,
2013-07-22 23:01:00,71.0,66.0,-100.00,West,275,0.0,0.0,85,0.00,,,-99.99,,2013-07-23 04:01:00,
2013-07-22 23:32:00,70.0,67.0,-100.00,NW,315,0.0,0.0,90,0.00,,,-99.99,,2013-07-23 04:32:00,
2013-07-22 23:43:00,70.0,67.0,-100.00,NW,315,0.0,0.0,90,0.00,,,-99.99,,2013-07-23 04:43:00,
2013-07-22 23:53:00,70.0,67.0,-100.00,NW,315,0.0,0.0,90,0.00,,,-99.99,,2013-07-23 04:53:00,